Location: Vancouver
(49.2500°N, 123.1330°W)
Time: 17:20:59
(UTC-07:00)

Iridium 35 - Visible Passes

Search period start: 01 October 2014 00:00
Search period end: 11 October 2014 00:00
Orbit: 776 x 779 km, 86.4° (Epoch: 01 October)

Date Brightness Start Highest point End Pass type
(mag) Time Alt. Az. Time Alt. Az. Time Alt. Az.
01 Oct 7.9 01:12:26 12° NNE 01:12:26 12° NNE 01:12:49 10° NNE visible
01 Oct 7.7 02:52:55 11° NNW 02:52:55 11° NNW 02:53:05 10° NNW visible
02 Oct 7.8 02:19:35 12° N 02:19:35 12° N 02:19:57 10° N visible
03 Oct 7.9 01:46:15 12° N 01:46:15 12° N 01:46:34 10° N visible
04 Oct 8.0 01:12:54 11° N 01:12:54 11° N 01:13:00 10° N visible
